Location: ?
(35.4064°N, 139.3593°E)
Time: 11:25:52
(UTC+00:00)

ARIANE 6 FM1 Upper Stage - Pass Details

Date: 17 December 2025
Orbit: 522 x 610 km, 62.0° (Epoch: 13 January)

Event Time Altitude Azimuth Distance (km) Brightness Sun altitude
Exits shadow 20:58:21 12° 277° (W) 1,661 4.4 -9.6°
Maximum altitude 21:00:33 17° 314° (NW) 1,381 4.1 -9.2°
Drops below altitude 10° 21:03:14 10° 357° (N) 1,775 5.0 -8.7°
Sets 21:06:02 0° 17° (NNE) 2,659 6.1 -8.2°
